Total_Precipitation_Accumulation
0.04 0.05 0.06 0.06 0.06 0.05 0.03 0.01 0.00 0.00 0.00 0.00 0.03 0.06 0.17 0.17 0.17 0.05 0.02 0.00 0.00 0.00 0.00 0.00 0.00 0.00 0.00 0.00 0.00 0.00 0.00 0.00 0.00 0.00 0.00 0.00 0.00 0.00 0.00 0.00 0.00 0.00 0.00 0.00 0.00
0.03 0.04 0.07 0.08 0.07 0.07 0.05 0.03 0.00 0.00 0.00 0.00 0.00 0.00 0.03 0.06 0.19 0.12 0.00 0.00 0.02 0.02 0.00 0.00 0.00 0.00 0.00 0.00 0.00 0.00 0.00 0.00 0.00 0.00 0.00 0.00 0.00 0.00 0.00 0.00 0.00 0.00 0.00 0.00 0.00
0.05 0.06 0.07 0.09 0.09 0.07 0.06 0.05 0.02 0.00 0.00 0.00 0.00 0.00 0.00 0.00 0.02 0.01 0.00 0.04 0.11 0.22 0.01 0.00 0.00 0.00 0.00 0.00 0.00 0.00 0.00 0.00 0.00 0.00 0.00 0.00 0.00 0.00 0.00 0.00 0.00 0.00 0.00 0.00 0.00
0.07 0.08 0.08 0.09 0.10 0.09 0.07 0.07 0.05 0.02 0.00 0.00 0.00 0.00 0.00 0.00 0.00 0.00 0.00 0.05 0.15 0.28 0.07 0.00 0.00 0.00 0.00 0.00 0.00 0.00 0.00 0.00 0.00 0.00 0.00 0.00 0.00 0.00 0.00 0.00 0.00 0.00 0.00 0.00 0.00
0.07 0.08 0.09 0.08 0.08 0.08 0.07 0.06 0.06 0.05 0.01 0.00 0.00 0.00 0.00 0.00 0.00 0.00 0.00 0.00 0.05 0.14 0.10 0.04 0.00 0.00 0.00 0.00 0.00 0.00 0.00 0.00 0.00 0.00 0.00 0.00 0.00 0.00 0.00 0.00 0.00 0.00 0.00 0.00 0.00
0.06 0.07 0.08 0.08 0.07 0.07 0.08 0.07 0.08 0.08 0.04 0.00 0.01 0.01 0.00 0.00 0.00 0.00 0.00 0.00 0.00 0.03 0.09 0.07 0.02 0.00 0.00 0.00 0.00 0.00 0.00 0.00 0.00 0.00 0.00 0.00 0.00 0.00 0.00 0.00 0.00 0.00 0.00 0.00 0.00
0.07 0.07 0.07 0.07 0.08 0.08 0.10 0.11 0.12 0.13 0.10 0.02 0.01 0.02 0.01 0.00 0.00 0.00 0.00 0.00 0.00 0.01 0.04 0.04 0.01 0.01 0.01 0.00 0.00 0.00 0.00 0.00 0.00 0.00 0.00 0.00 0.00 0.00 0.00 0.00 0.00 0.00 0.00 0.00 0.00
0.11 0.12 0.11 0.11 0.11 0.10 0.11 0.13 0.20 0.24 0.23 0.10 0.01 0.01 0.01 0.00 0.00 0.00 0.00 0.00 0.00 0.01 0.04 0.04 0.01 0.01 0.01 0.00 0.00 0.00 0.00 0.00 0.00 0.00 0.00 0.00 0.00 0.00 0.00 0.00 0.00 0.00 0.00 0.00 0.00
0.15 0.15 0.14 0.15 0.16 0.16 0.16 0.16 0.25 0.36 0.39 0.28 0.03 0.01 0.00 0.00 0.00 0.00 0.00 0.00 0.00 0.00 0.01 0.03 0.01 0.00 0.00 0.02 0.01 0.00 0.00 0.00 0.00 0.00 0.00 0.00 0.00 0.00 0.00 0.00 0.00 0.00 0.00 0.00 0.00
0.22 0.22 0.23 0.22 0.24 0.24 0.28 0.38 0.41 0.45 0.53 0.48 0.13 0.01 0.00 0.00 0.00 0.00 0.00 0.00 0.00 0.01 0.04 0.02 0.00 0.00 0.00 0.01 0.01 0.00 0.00 0.00 0.00 0.00 0.00 0.00 0.00 0.00 0.00 0.00 0.00 0.00 0.00 0.00 0.00
0.27 0.24 0.25 0.31 0.33 0.40 0.59 0.80 0.85 0.82 0.78 0.35 0.11 0.00 0.00 0.00 0.00 0.00 0.00 0.00 0.00 0.00 0.00 0.00 0.00 0.00 0.00 0.00 0.00 0.00 0.00 0.00 0.00 0.00 0.00 0.00 0.00 0.00 0.00 0.00 0.00 0.00 0.00 0.00 0.00
0.26 0.34 0.38 0.37 0.50 0.63 0.89 0.80 0.59 0.49 0.53 0.21 0.02 0.00 0.00 0.00 0.00 0.00 0.00 0.00 0.00 0.00 0.00 0.01 0.01 0.00 0.00 0.00 0.00 0.00 0.00 0.00 0.00 0.00 0.01 0.00 0.00 0.00 0.00 0.00 0.00 0.00 0.00 0.00 0.00
0.29 0.35 0.47 0.66 0.71 0.88 0.76 0.45 0.35 0.56 0.54 0.24 0.05 0.00 0.00 0.00 0.01 0.00 0.00 0.00 0.00 0.00 0.00 0.00 0.00 0.00 0.00 0.00 0.00 0.00 0.00 0.00 0.00 0.00 0.01 0.01 0.00 0.00 0.00 0.00 0.00 0.00 0.00 0.00 0.00
0.36 0.42 0.48 0.64 0.92 0.92 0.79 0.47 0.45 0.83 0.61 0.24 0.11 0.01 0.01 0.02 0.02 0.00 0.00 0.01 0.02 0.00 0.01 0.04 0.00 0.00 0.01 0.00 0.00 0.00 0.00 0.00 0.01 0.03 0.01 0.03 0.03 0.00 0.00 0.00 0.00 0.00 0.00 0.00 0.00
0.48 0.51 0.58 0.71 0.94 0.83 0.66 0.78 0.80 0.91 0.56 0.09 0.08 0.01 0.04 0.02 0.00 0.00 0.00 0.03 0.13 0.05 0.07 0.11 0.00 0.00 0.01 0.00 0.01 0.01 0.00 0.00 0.06 0.16 0.09 0.04 0.08 0.01 0.00 0.00 0.00 0.00 0.00 0.00 0.00
0.53 0.61 0.67 0.83 0.75 0.50 0.66 0.96 1.53 1.14 0.54 0.16 0.07 0.05 0.08 0.04 0.03 0.01 0.02 0.04 0.07 0.23 0.33 0.11 0.01 0.04 0.01 0.00 0.02 0.02 0.05 0.06 0.14 0.31 0.52 0.07 0.06 0.02 0.00 0.00 0.00 0.00 0.00 0.00 0.00
0.69 0.77 0.99 0.90 0.68 0.47 0.96 1.57 1.49 0.78 0.23 0.06 0.04 0.05 0.03 0.03 0.04 0.03 0.08 0.08 0.08 0.11 0.16 0.13 0.06 0.02 0.02 0.04 0.03 0.06 0.27 0.54 0.59 0.50 0.34 0.10 0.05 0.05 0.00 0.00 0.00 0.00 0.00 0.00 0.00
0.84 0.95 1.19 0.95 0.65 0.80 1.07 1.44 0.75 0.25 0.12 0.03 0.02 0.04 0.03 0.01 0.04 0.02 0.06 0.07 0.03 0.03 0.04 0.02 0.01 0.01 0.01 0.03 0.03 0.03 0.16 0.51 0.45 0.22 0.06 0.04 0.12 0.01 0.00 0.00 0.00 0.00 0.00 0.00 0.00
1.13 1.30 1.66 1.30 0.95 1.15 1.03 1.08 0.39 0.18 0.03 0.03 0.08 0.10 0.07 0.01 0.02 0.03 0.03 0.01 0.01 0.01 0.04 0.04 0.08 0.05 0.03 0.02 0.04 0.07 0.25 0.28 0.35 0.24 0.24 0.04 0.01 0.00 0.00 0.00 0.00 0.00 0.00 0.00 0.00
1.03 1.67 1.88 1.16 1.16 1.57 1.28 0.53 0.27 0.17 0.03 0.05 0.07 0.03 0.03 0.01 0.02 0.02 0.02 0.00 0.00 0.00 0.00 0.05 0.13 0.16 0.28 0.32 0.20 0.07 0.10 0.31 0.80 0.55 0.29 0.07 0.00 0.00 0.00 0.00 0.00 0.00 0.00 0.00 0.00
1.02 1.57 1.63 1.29 1.77 2.23 1.40 0.46 0.26 0.08 0.05 0.07 0.05 0.05 0.02 0.01 0.00 0.00 0.00 0.00 0.00 0.00 0.01 0.06 0.18 0.13 0.58 0.47 0.22 0.36 0.58 0.43 0.43 0.28 0.27 0.19 0.01 0.00 0.00 0.00 0.00 0.00 0.00 0.00 0.00
1.10 1.53 1.42 1.80 2.53 1.93 0.75 0.22 0.23 0.09 0.07 0.10 0.09 0.06 0.04 0.02 0.02 0.00 0.00 0.00 0.00 0.00 0.02 0.05 0.31 0.24 0.37 0.17 0.09 0.31 0.30 0.29 0.77 0.41 0.38 0.35 0.10 0.00 0.01 0.01 0.00 0.01 0.02 0.01 0.00
1.22 1.41 1.82 1.30 1.25 0.69 0.37 0.24 0.16 0.08 0.12 0.15 0.10 0.05 0.02 0.03 0.07 0.00 0.00 0.00 0.00 0.00 0.07 0.28 0.52 0.33 0.27 0.39 0.47 0.75 0.41 0.34 0.59 0.97 0.66 0.42 0.14 0.00 0.00 0.00 0.00 0.01 0.03 0.02 0.01
1.41 1.81 2.32 2.10 0.64 0.11 0.17 0.29 0.12 0.09 0.15 0.18 0.17 0.12 0.08 0.04 0.02 0.01 0.00 0.00 0.00 0.00 0.03 0.33 0.63 0.61 0.58 0.35 0.55 0.82 0.45 0.57 1.13 1.08 0.35 0.29 0.04 0.01 0.01 0.02 0.01 0.00 0.02 0.04 0.01
1.26 1.14 0.79 0.69 0.58 0.13 0.10 0.14 0.09 0.14 0.16 0.25 0.21 0.10 0.07 0.07 0.02 0.01 0.00 0.00 0.00 0.00 0.06 0.42 0.84 0.81 0.45 0.28 0.41 0.56 0.56 0.49 0.94 0.52 0.50 0.16 0.07 0.03 0.03 0.02 0.02 0.01 0.01 0.03 0.02
0.80 1.05 0.38 0.07 0.15 0.16 0.12 0.17 0.09 0.13 0.19 0.15 0.12 0.07 0.07 0.05 0.00 0.00 0.00 0.00 0.01 0.01 0.11 0.33 0.70 0.74 0.61 0.24 0.38 0.48 0.55 0.36 0.56 0.27 0.26 0.16 0.13 0.01 0.01 0.01 0.00 0.01 0.04 0.06 0.05
0.65 0.77 0.48 0.21 0.11 0.17 0.08 0.05 0.07 0.12 0.09 0.06 0.10 0.17 0.08 0.01 0.00 0.00 0.00 0.00 0.01 0.06 0.16 0.27 0.50 0.73 0.64 0.48 0.28 0.47 0.58 0.68 0.48 0.20 0.24 0.27 0.14 0.01 0.01 0.04 0.06 0.04 0.06 0.04 0.02